Weather reports worldwide

Advertisment
Achnagart, United Kingdom (99191): temperature & dewpoint: 12.07.2019 06:00:00 - 18.07.2019 06:00:00 (BST)Achnagart, United Kingdom (99191): precipitation: 12.07.2019 06:00:00 - 18.07.2019 06:00:00 (BST)
Date & Time tt [°C] td [°C] rr [mm]
18.07.2019 06:00:00 11,9 11,8 0,0
18.07.2019 05:00:00 12,1 11,8 1,2
18.07.2019 04:00:00 12,1 11,8 0,6
18.07.2019 03:00:00 12,1 11,7 0,6
18.07.2019 02:00:00 12,0 11,6 0,0
18.07.2019 01:00:00 12,0 11,4 0,4
18.07.2019 00:00:00 11,9 11,0 0,0
17.07.2019 23:00:00 12,5 11,5 0,0
17.07.2019 22:00:00 13,1 11,7 0,0
17.07.2019 21:00:00 14,0 12,1 0,0
17.07.2019 20:00:00 14,9 13,1 0,2
17.07.2019 19:00:00 15,5 15,1 1,2
17.07.2019 18:00:00 15,3 14,6 0,8
17.07.2019 17:00:00 15,6 14,3 1,0
17.07.2019 16:00:00 15,8 13,5 0,4
17.07.2019 15:00:00 15,7 13,4 1,2
17.07.2019 14:00:00 16,5 12,7 0,0
17.07.2019 13:00:00 16,7 12,4 0,2
17.07.2019 12:00:00 16,2 12,5 0,0
17.07.2019 11:00:00 16,9 11,8 0,0
17.07.2019 10:00:00 16,5 11,6 0,0
17.07.2019 09:00:00 17,4 11,1 0,0
17.07.2019 08:00:00 17,2 11,4 0,0
17.07.2019 07:00:00 15,4 13,1 0,0
17.07.2019 06:00:00 13,5 13,2 0,0
17.07.2019 05:00:00 13,5 13,0 0,0
17.07.2019 04:00:00 13,2 12,7 0,0
17.07.2019 03:00:00 13,1 12,5 0,2
17.07.2019 02:00:00 13,7 12,9 0,0
17.07.2019 01:00:00 14,0 12,2 0,0
17.07.2019 00:00:00 14,0 12,0 0,0
16.07.2019 23:00:00 15,2 11,4 0,0
16.07.2019 22:00:00 17,2 11,1 0,0
16.07.2019 21:00:00 17,8 12,3 0,0
16.07.2019 20:00:00 18,7 11,3 0,0
16.07.2019 19:00:00 19,5 11,5 0,0
16.07.2019 18:00:00 19,7 13,4 0,0
16.07.2019 17:00:00 19,0 11,7 0,0
16.07.2019 16:00:00 19,8 11,6 0,0
16.07.2019 15:00:00 19,8 13,5 0,0
16.07.2019 14:00:00 18,9 13,0 0,0
16.07.2019 13:00:00 19,9 14,6 0,0
16.07.2019 12:00:00 18,6 15,5 0,0
16.07.2019 11:00:00 15,6 13,8 0,0
16.07.2019 10:00:00 16,4 14,1 0,0
16.07.2019 09:00:00 15,5 13,6 0,0
16.07.2019 08:00:00 15,3 13,7 0,0
16.07.2019 07:00:00 14,3 13,3 0,0
16.07.2019 06:00:00 12,3 11,8 0,0
16.07.2019 05:00:00 11,8 11,7 0,0
16.07.2019 04:00:00 12,1 11,9 0,0
16.07.2019 03:00:00 12,0 11,9 0,0
16.07.2019 02:00:00 11,8 11,6 0,0
16.07.2019 01:00:00 11,7 11,4 0,0
16.07.2019 00:00:00 12,2 11,5 0,0
15.07.2019 23:00:00 13,5 12,3 0,0
15.07.2019 22:00:00 15,2 12,3 0,0
15.07.2019 21:00:00 17,9 13,1 0,0
15.07.2019 20:00:00 19,6 12,3 0,0
15.07.2019 19:00:00 21,2 13,1 0,0
15.07.2019 18:00:00 22,3 14,1 0,0
15.07.2019 17:00:00 23,3 14,0 0,0
15.07.2019 16:00:00 21,4 13,1 0,0
15.07.2019 15:00:00 21,1 13,2 0,0
15.07.2019 14:00:00 22,2 13,9 0,0
15.07.2019 13:00:00 21,5 12,7 0,0
15.07.2019 12:00:00 21,4 10,8 0,0
15.07.2019 11:00:00 22,3 13,4 0,0
15.07.2019 10:00:00 19,5 13,1 0,0
15.07.2019 09:00:00 16,6 13,3 0,0
15.07.2019 08:00:00 12,3 10,5 0,0
15.07.2019 07:00:00 12,4 10,2 0,0
15.07.2019 06:00:00 12,2 10,4 0,0
15.07.2019 05:00:00 11,6 11,6 0,0
15.07.2019 04:00:00 7,5 7,5 0,0
15.07.2019 03:00:00 7,7 7,6 0,0
15.07.2019 02:00:00 8,1 7,9 0,0
15.07.2019 01:00:00 9,5 9,4 0,0
15.07.2019 00:00:00 9,9 9,4 0,0
14.07.2019 23:00:00 11,2 10,2 0,0
14.07.2019 22:00:00 12,9 10,1 0,0
14.07.2019 21:00:00 15,3 10,7 0,0
14.07.2019 20:00:00 15,9 11,1 0,0
14.07.2019 19:00:00 19,5 11,2 0,0
14.07.2019 18:00:00 19,8 11,4 0,0
14.07.2019 17:00:00 20,4 11,1 0,0
14.07.2019 16:00:00 20,5 12,6 0,0
14.07.2019 15:00:00 19,8 11,4 0,0
14.07.2019 14:00:00 19,7 11,3 0,0
14.07.2019 13:00:00 19,3 12,0 0,0
14.07.2019 12:00:00 18,2 11,1 0,0
14.07.2019 11:00:00 16,8 9,8 0,0
14.07.2019 10:00:00 14,7 9,9 0,0
14.07.2019 09:00:00 13,3 10,2 0,0
14.07.2019 08:00:00 12,8 10,5 0,0
14.07.2019 07:00:00 12,2 11,5 0,0
14.07.2019 06:00:00 11,3 11,1 0,0
14.07.2019 05:00:00 11,2 10,6 0,0
14.07.2019 04:00:00 11,8 10,8 0,0
14.07.2019 03:00:00 11,8 10,7 0,0
14.07.2019 02:00:00 12,0 10,4 0,0
14.07.2019 01:00:00 12,1 10,9 0,0
14.07.2019 00:00:00 12,6 10,2 0,0
13.07.2019 23:00:00 13,2 10,0 0,0
13.07.2019 22:00:00 13,6 10,1 0,0
13.07.2019 21:00:00 14,7 9,8 0,0
13.07.2019 20:00:00 15,4 10,4 0,0
13.07.2019 19:00:00 15,8 10,7 0,0
13.07.2019 18:00:00 15,9 11,0 0,0
13.07.2019 17:00:00 15,3 10,4 0,0
13.07.2019 16:00:00 16,8 11,7 0,0
13.07.2019 15:00:00 15,5 10,6 0,0
13.07.2019 14:00:00 15,8 10,5 0,0
13.07.2019 13:00:00 16,1 10,6 0,0
13.07.2019 12:00:00 15,2 11,3 0,0
13.07.2019 11:00:00 13,9 11,4 0,0
13.07.2019 10:00:00 13,4 12,0 0,0
13.07.2019 09:00:00 13,1 12,2 0,0
13.07.2019 08:00:00 13,1 12,4 0,0
13.07.2019 07:00:00 13,2 12,8 0,8
13.07.2019 06:00:00 13,5 13,2 0,2
13.07.2019 05:00:00 13,4 13,1 0,2
13.07.2019 04:00:00 13,7 13,3 0,0
13.07.2019 03:00:00 13,9 13,7 0,0
13.07.2019 02:00:00 14,1 13,9 0,0
13.07.2019 01:00:00 14,2 14,1 0,2
13.07.2019 00:00:00 14,3 14,1 2,2
12.07.2019 23:00:00 14,8 14,3 0,0
12.07.2019 22:00:00 15,0 14,6 0,0
12.07.2019 21:00:00 15,5 14,8 0,2
12.07.2019 20:00:00 15,9 15,3 0,4
12.07.2019 19:00:00 16,0 15,1 0,0
12.07.2019 18:00:00 17,3 14,2 0,0
12.07.2019 17:00:00 17,7 14,0 0,0
12.07.2019 16:00:00 18,1 14,3 0,0
12.07.2019 15:00:00 17,7 13,0 0,0
12.07.2019 14:00:00 17,9 13,6 0,0
12.07.2019 13:00:00 17,6 13,6 0,0
12.07.2019 12:00:00 17,1 12,9 0,0
12.07.2019 11:00:00 16,2 13,3 0,0
12.07.2019 10:00:00 15,7 13,5 0,0
12.07.2019 09:00:00 14,8 13,8 0,0
12.07.2019 08:00:00 12,3 12,3 0,0
12.07.2019 07:00:00 11,5 11,5 0,0
12.07.2019 06:00:00 11,3 11,3 0,0

tt = temperature
td = dewpoint
rr = precipitation

Next stations